TimePDT,TemperatureF,Dew PointF,Humidity,Sea Level PressureIn,VisibilityMPH,Wind Direction,Wind SpeedMPH,Gust SpeedMPH,PrecipitationIn,Events,Conditions,WindDirDegrees,DateUTC
12:53 AM,46.9,39.9,77,30.31,10.0,NNE,4.6,-,N/A,,Partly Cloudy,30,2012-10-26 07:53:00
1:53 AM,46.9,39.0,74,30.28,10.0,ENE,4.6,-,N/A,,Mostly Cloudy,60,2012-10-26 08:53:00
2:53 AM,46.0,39.9,79,30.28,10.0,Calm,Calm,-,N/A,,Overcast,0,2012-10-26 09:53:00
3:53 AM,45.0,39.9,82,30.25,10.0,Calm,Calm,-,N/A,,Overcast,0,2012-10-26 10:53:00
4:53 AM,44.1,39.9,85,30.24,10.0,Calm,Calm,-,N/A,,Overcast,0,2012-10-26 11:53:00
5:53 AM,44.1,41.0,89,30.21,10.0,Calm,Calm,-,N/A,,Overcast,0,2012-10-26 12:53:00
6:53 AM,44.1,39.9,85,30.19,10.0,Calm,Calm,-,N/A,,Overcast,0,2012-10-26 13:53:00
7:53 AM,45.0,39.9,82,30.17,10.0,Calm,Calm,-,N/A,,Overcast,0,2012-10-26 14:53:00
8:53 AM,46.9,37.9,71,30.16,10.0,NE,5.8,-,N/A,,Overcast,40,2012-10-26 15:53:00
9:53 AM,46.0,39.0,76,30.16,10.0,North,8.1,-,0.00,,Overcast,10,2012-10-26 16:53:00
10:53 AM,46.0,39.9,79,30.18,10.0,North,6.9,-,0.00,Rain,Light Rain,360,2012-10-26 17:53:00
11:53 AM,46.0,42.1,86,30.17,4.0,NE,9.2,-,0.03,Rain,Light Rain,40,2012-10-26 18:53:00
12:53 PM,46.9,43.0,86,30.14,10.0,ENE,9.2,18.4,0.00,,Overcast,60,2012-10-26 19:53:00
1:28 PM,46.4,42.8,87,30.13,9.0,ENE,5.8,-,0.00,Rain,Light Rain,70,2012-10-26 20:28:00
1:53 PM,46.0,43.0,89,30.13,9.0,ENE,4.6,-,0.00,Rain,Light Rain,70,2012-10-26 20:53:00
2:05 PM,46.4,42.8,87,30.13,10.0,ENE,4.6,-,0.00,,Overcast,60,2012-10-26 21:05:00
2:12 PM,46.4,42.8,87,30.12,9.0,East,6.9,-,0.00,,Overcast,80,2012-10-26 21:12:00
2:53 PM,46.0,42.1,86,30.12,10.0,East,8.1,-,0.00,,Overcast,90,2012-10-26 21:53:00
3:53 PM,46.0,42.1,86,30.09,4.0,ENE,5.8,-,0.00,Rain,Light Rain,70,2012-10-26 22:53:00
4:53 PM,46.0,42.1,86,30.08,10.0,Variable,5.8,-,0.00,,Overcast,0,2012-10-26 23:53:00
5:53 PM,46.0,42.1,86,30.07,10.0,Variable,3.5,-,0.00,,Overcast,0,2012-10-27 00:53:00
6:53 PM,46.0,42.1,86,30.05,8.0,ENE,4.6,-,0.00,Rain,Light Rain,70,2012-10-27 01:53:00
7:53 PM,46.0,43.0,89,30.06,6.0,Calm,Calm,-,0.00,Rain,Light Rain,0,2012-10-27 02:53:00
8:05 PM,46.4,42.8,87,30.05,9.0,Variable,3.5,-,0.00,Rain,Light Rain,0,2012-10-27 03:05:00
8:53 PM,46.0,44.1,93,30.04,10.0,NE,5.8,-,0.00,,Overcast,40,2012-10-27 03:53:00
9:34 PM,46.4,44.6,93,30.04,10.0,ENE,3.5,-,N/A,,Overcast,70,2012-10-27 04:34:00
9:53 PM,46.0,44.1,93,30.04,9.0,ENE,4.6,-,N/A,,Overcast,60,2012-10-27 04:53:00
10:53 PM,46.9,46.0,97,30.03,7.0,Calm,Calm,-,0.00,Rain,Light Rain,0,2012-10-27 05:53:00
11:41 PM,46.4,44.6,93,30.02,6.0,Calm,Calm,-,0.00,Rain,Light Rain,0,2012-10-27 06:41:00
11:53 PM,46.9,46.0,97,30.02,6.0,Calm,Calm,-,0.00,,Overcast,0,2012-10-27 06:53:00